Weather History for Bedford, MA

Change the Weather History Date:

Monday, July 22, 2013

  Actual Average Record
Temperature  
Mean Temperature 72 °F -  
Max Temperature 82 °F 82 °F 100 °F (2011)
Min Temperature 62 °F 60 °F 51 °F (1965)
Cooling Degree Days 7    
Growing Degree Days 22 (Base 50)    
Moisture  
Dew Point 65 °F    
Average Humidity 88    
Maximum Humidity 100    
Minimum Humidity 54    
Precipitation  
Precipitation 0.01 in - - ()
Sea Level Pressure  
Sea Level Pressure 29.99 in    
Wind  
Wind Speed 2 mph (ENE)    
Max Wind Speed 12 mph    
Max Gust Speed 20 mph    
Visibility 6 miles    
Events Fog    
Averages and records for this station are not official NWS values.
T = Trace of Precipitation, MM = Missing Value Source: NWS Daily Summary

Daily Weather History Graph

Daily Weather History Graph

Search for Another Location

Airport:

Trip Planner

Search our weather history database for the weather conditions in past years. The results will help you decide how hot, cold, wet, or windy it might be!

Date:

Astronomy

Jul. 22, 2013 Rise Set
Actual Time 5:27 AM EDT 8:14 PM EDT
Civil Twilight 4:54 AM EDT 8:47 PM EDT
Nautical Twilight 4:13 AM EDT 9:29 PM EDT
Astronomical Twilight 3:25 AM EDT 10:16 PM EDT
Moon 7:56 PM EDT (7/22) 5:21 AM EDT (7/22)
Length of Visible Light 15h 52m
Length of Day
14h 47m
Full, 100% of the Moon is Illuminated
Jul 22
Full
Jul 22
Full
Jul 29
Last Quarter
Aug 6
New
Aug 14
First Quarter

Hourly Weather History & Observations

Time (EDT) Temp. Heat Index Dew Point Humidity Pressure Visibility Wind Dir Wind Speed Gust Speed Precip Events Conditions
12:56 AM 64.9 °F - 64.0 °F 97% 30.01 in 10.0 mi Calm Calm - N/A   Clear
1:56 AM 64.9 °F - 64.0 °F 97% 30.00 in 10.0 mi Calm Calm - N/A   Partly Cloudy
2:54 AM 64.4 °F - 64.4 °F 100% 29.97 in 1.0 mi Calm Calm - N/A   Clear
2:56 AM 64.0 °F - 64.0 °F 100% 30.00 in 1.0 mi Calm Calm - N/A   Clear
3:00 AM 64.4 °F - 64.4 °F 100% 29.97 in 1.8 mi Calm Calm - N/A   Partly Cloudy
3:03 AM 64.4 °F - 64.4 °F 100% 29.97 in 0.8 mi Calm Calm - N/A   Mist
3:14 AM 64.4 °F - 64.4 °F 100% 29.97 in 1.2 mi Calm Calm - N/A   Partly Cloudy
3:22 AM 62.6 °F - 62.6 °F 100% 29.97 in 10.0 mi NW 3.5 mph - N/A   Partly Cloudy
3:56 AM 63.0 °F - 63.0 °F 100% 30.00 in 4.0 mi Calm Calm - N/A   Clear
4:12 AM 64.4 °F - 64.4 °F 100% 29.96 in 1.8 mi Calm Calm - N/A   Partly Cloudy
4:23 AM 62.6 °F - 62.6 °F 100% 29.97 in 4.0 mi Calm Calm - N/A   Scattered Clouds
4:56 AM 62.1 °F - 62.1 °F 100% 30.01 in 8.0 mi Calm Calm - N/A   Partly Cloudy
5:46 AM 62.6 °F - 62.6 °F 100% 29.98 in 6.0 mi Calm Calm - N/A   Scattered Clouds
5:56 AM 63.0 °F - 63.0 °F 100% 30.01 in 4.0 mi Calm Calm - N/A   Mostly Cloudy
6:06 AM 62.6 °F - 62.6 °F 100% 29.98 in 1.8 mi Calm Calm - N/A   Overcast
6:18 AM 64.4 °F - 62.6 °F 94% 29.98 in 3.0 mi NNW 3.5 mph - N/A   Overcast
6:22 AM 64.4 °F - 64.4 °F 100% 29.98 in 1.8 mi Calm Calm - N/A   Overcast
6:32 AM 64.4 °F - 64.4 °F 100% 29.99 in 0.2 mi Calm Calm - N/A Fog Fog
6:41 AM 64.4 °F - 64.4 °F 100% 29.99 in 0.2 mi Calm Calm - N/A Fog Fog
6:56 AM 66.0 °F - 66.0 °F 100% 30.02 in 0.2 mi Calm Calm - 0.01 in Fog Fog
7:09 AM 66.2 °F - 66.2 °F 100% 29.99 in 1.0 mi Calm Calm - N/A   Overcast
7:18 AM 66.2 °F - 66.2 °F 100% 29.99 in 0.8 mi Calm Calm - N/A   Overcast
7:56 AM 68.0 °F - 68.0 °F 100% 30.02 in 0.5 mi NE 4.6 mph - N/A Fog Fog
8:56 AM 70.0 °F - 68.0 °F 93% 30.04 in 0.8 mi Calm Calm - N/A   Mist
9:03 AM 71.6 °F - 68.0 °F 88% 30.00 in 2.0 mi Variable 3.5 mph - N/A   Overcast
9:21 AM 71.6 °F - 68.0 °F 88% 30.00 in 4.0 mi Calm Calm - N/A   Overcast
9:56 AM 75.0 °F - 68.0 °F 79% 30.04 in 10.0 mi NNW 4.6 mph - N/A   Overcast
10:56 AM 75.9 °F - 68.0 °F 76% 30.04 in 9.0 mi NNW 4.6 mph - N/A   Overcast
11:03 AM 75.2 °F - 68.0 °F 78% 30.01 in 10.0 mi Calm Calm - N/A   Mostly Cloudy
11:56 AM 79.0 °F - 68.0 °F 69% 30.02 in 10.0 mi NE 5.8 mph - N/A   Mostly Cloudy
12:56 PM 82.9 °F 85.0 °F 66.0 °F 56% 30.00 in 10.0 mi Variable 4.6 mph - N/A   Mostly Cloudy
1:03 PM 82.4 °F 84.6 °F 66.2 °F 58% 29.97 in 10.0 mi Variable 3.5 mph - N/A   Clear
1:56 PM 82.0 °F 84.1 °F 66.0 °F 58% 29.99 in 10.0 mi East 10.4 mph - N/A   Partly Cloudy
2:56 PM 82.0 °F 83.4 °F 64.0 °F 54% 29.98 in 10.0 mi East 9.2 mph 16.1 mph N/A   Clear
3:56 PM 81.0 °F 82.2 °F 63.0 °F 54% 29.97 in 10.0 mi ESE 11.5 mph 19.6 mph N/A   Clear
4:56 PM 80.1 °F 81.9 °F 64.9 °F 60% 29.96 in 10.0 mi East 10.4 mph - N/A   Clear
5:56 PM 75.9 °F - 64.9 °F 69% 29.96 in 10.0 mi East 11.5 mph - N/A   Mostly Cloudy
6:56 PM 73.0 °F - 64.9 °F 76% 29.95 in 10.0 mi East 10.4 mph - N/A   Clear
7:56 PM 70.0 °F - 64.9 °F 84% 29.95 in 10.0 mi East 10.4 mph - N/A   Scattered Clouds
8:02 PM 69.8 °F - 66.2 °F 88% 29.91 in 10.0 mi ESE 8.1 mph - N/A   Mostly Cloudy
8:56 PM 69.1 °F - 66.0 °F 90% 29.95 in 10.0 mi East 5.8 mph - N/A   Overcast